Year,Month,Day,Hour,Minute,Value (Times are PST for temperature in C)
2020,08,17,00,00,25.30
2020,08,17,00,01,25.30
2020,08,17,00,02,25.30
2020,08,17,00,03,25.30
2020,08,17,00,04,25.30
2020,08,17,00,05,25.30
2020,08,17,00,06,25.30
2020,08,17,00,07,25.30
2020,08,17,00,08,25.30
2020,08,17,00,09,25.20
2020,08,17,00,10,25.20
2020,08,17,00,11,25.20
2020,08,17,00,12,25.20
2020,08,17,00,13,25.20
2020,08,17,00,14,25.20
2020,08,17,00,15,25.10
2020,08,17,00,16,25.10
2020,08,17,00,17,25.10
2020,08,17,00,18,25.10
2020,08,17,00,19,25.10
2020,08,17,00,20,25.10
2020,08,17,00,21,25.10
2020,08,17,00,22,25.00
2020,08,17,00,23,25.00
2020,08,17,00,24,25.00
2020,08,17,00,25,25.00
2020,08,17,00,26,24.90
2020,08,17,00,27,24.90
2020,08,17,00,28,24.90
2020,08,17,00,29,24.90
2020,08,17,00,30,24.90
2020,08,17,00,31,24.90
2020,08,17,00,32,24.90
2020,08,17,00,33,24.80
2020,08,17,00,34,24.80
2020,08,17,00,35,24.80
2020,08,17,00,36,24.80
2020,08,17,00,37,24.80
2020,08,17,00,38,24.80
2020,08,17,00,39,24.80
2020,08,17,00,40,24.80
2020,08,17,00,41,24.70
2020,08,17,00,42,24.70
2020,08,17,00,43,24.70
2020,08,17,00,44,24.70
2020,08,17,00,45,24.60
2020,08,17,00,46,24.60
2020,08,17,00,47,24.60
2020,08,17,00,48,24.50
2020,08,17,00,49,24.50
2020,08,17,00,50,24.40
2020,08,17,00,51,24.30
2020,08,17,00,52,24.30
2020,08,17,00,53,24.30
2020,08,17,00,54,24.30
2020,08,17,00,55,24.20
2020,08,17,00,56,24.20
2020,08,17,00,57,24.20
2020,08,17,00,58,24.20
2020,08,17,00,59,24.10
2020,08,17,01,00,24.10
2020,08,17,01,01,24.10
2020,08,17,01,02,24.10
2020,08,17,01,03,24.00
2020,08,17,01,04,24.00
2020,08,17,01,05,23.90
2020,08,17,01,06,23.90
2020,08,17,01,07,23.90
2020,08,17,01,08,23.90
2020,08,17,01,09,23.80
2020,08,17,01,10,23.80
2020,08,17,01,11,23.80
2020,08,17,01,12,23.80
2020,08,17,01,13,23.80
2020,08,17,01,14,23.70
2020,08,17,01,15,23.70
2020,08,17,01,16,23.70
2020,08,17,01,17,23.70
2020,08,17,01,18,23.70
2020,08,17,01,19,23.70
2020,08,17,01,20,23.70
2020,08,17,01,21,23.60
2020,08,17,01,22,23.60
2020,08,17,01,23,23.60
2020,08,17,01,24,23.60
2020,08,17,01,25,23.60
2020,08,17,01,26,23.60
2020,08,17,01,27,23.60
2020,08,17,01,28,23.60
2020,08,17,01,29,23.60
2020,08,17,01,30,23.60
2020,08,17,01,31,23.60
2020,08,17,01,32,23.60
2020,08,17,01,33,23.60
2020,08,17,01,34,23.60
2020,08,17,01,35,23.60
2020,08,17,01,36,23.60
2020,08,17,01,37,23.60
2020,08,17,01,38,23.60
2020,08,17,01,39,23.60
2020,08,17,01,40,23.60
2020,08,17,01,41,23.70
2020,08,17,01,42,23.60
2020,08,17,01,43,23.70
2020,08,17,01,44,23.70
2020,08,17,01,45,23.70
2020,08,17,01,46,23.70
2020,08,17,01,47,23.70
2020,08,17,01,48,23.70
2020,08,17,01,49,23.70
2020,08,17,01,50,23.80
2020,08,17,01,51,23.80
2020,08,17,01,52,23.80
2020,08,17,01,53,23.80
2020,08,17,01,54,23.80
2020,08,17,01,55,23.80
2020,08,17,01,56,23.80
2020,08,17,01,57,23.80
2020,08,17,01,58,23.80
2020,08,17,01,59,23.80
2020,08,17,02,00,23.80
2020,08,17,02,01,23.80
2020,08,17,02,02,23.80
2020,08,17,02,03,23.80
2020,08,17,02,04,23.80
2020,08,17,02,05,23.70
2020,08,17,02,06,23.70
2020,08,17,02,07,23.70
2020,08,17,02,08,23.70
2020,08,17,02,09,23.70
2020,08,17,02,10,23.70
2020,08,17,02,11,23.60
2020,08,17,02,12,23.60
2020,08,17,02,13,23.60
2020,08,17,02,14,23.60
2020,08,17,02,15,23.60
2020,08,17,02,16,23.60
2020,08,17,02,17,23.60
2020,08,17,02,18,23.60
2020,08,17,02,19,23.60
2020,08,17,02,20,23.70
2020,08,17,02,21,23.70
2020,08,17,02,22,23.70
2020,08,17,02,23,23.70
2020,08,17,02,24,23.70
2020,08,17,02,25,23.70
2020,08,17,02,26,23.70
2020,08,17,02,27,23.70
2020,08,17,02,28,23.70
2020,08,17,02,29,23.80
2020,08,17,02,30,23.80
2020,08,17,02,31,23.80
2020,08,17,02,32,23.80
2020,08,17,02,33,23.90
2020,08,17,02,34,23.90
2020,08,17,02,35,23.90
2020,08,17,02,36,24.00
2020,08,17,02,37,24.00
2020,08,17,02,38,24.10
2020,08,17,02,39,24.10
2020,08,17,02,40,24.10
2020,08,17,02,41,24.10
2020,08,17,02,42,24.10
2020,08,17,02,43,24.10
2020,08,17,02,44,24.10
2020,08,17,02,45,24.10
2020,08,17,02,46,24.20
2020,08,17,02,47,24.20
2020,08,17,02,48,24.20
2020,08,17,02,49,24.20
2020,08,17,02,50,24.20
2020,08,17,02,51,24.20
2020,08,17,02,52,24.20
2020,08,17,02,53,24.20
2020,08,17,02,54,24.20
2020,08,17,02,55,24.20
2020,08,17,02,56,24.20
2020,08,17,02,57,24.20
2020,08,17,02,58,24.10
2020,08,17,02,59,24.10
2020,08,17,03,00,24.10
2020,08,17,03,01,24.10
2020,08,17,03,02,24.10
2020,08,17,03,03,24.10
2020,08,17,03,04,24.10
2020,08,17,03,05,24.10
2020,08,17,03,06,24.10
2020,08,17,03,07,24.10
2020,08,17,03,08,24.00
2020,08,17,03,09,24.00
2020,08,17,03,10,24.00
2020,08,17,03,11,24.00
2020,08,17,03,12,24.00
2020,08,17,03,13,23.90
2020,08,17,03,14,23.90
2020,08,17,03,15,23.90
2020,08,17,03,16,23.90
2020,08,17,03,17,23.90
2020,08,17,03,18,23.90
2020,08,17,03,19,23.80
2020,08,17,03,20,23.80
2020,08,17,03,21,23.80
2020,08,17,03,22,23.70
2020,08,17,03,23,23.70
2020,08,17,03,24,23.70
2020,08,17,03,25,23.60
2020,08,17,03,26,23.60
2020,08,17,03,27,23.50
2020,08,17,03,28,23.50
2020,08,17,03,29,23.40
2020,08,17,03,30,23.40
2020,08,17,03,31,23.40
2020,08,17,03,32,23.30
2020,08,17,03,33,23.30
2020,08,17,03,34,23.30
2020,08,17,03,35,23.30
2020,08,17,03,36,23.30
2020,08,17,03,37,23.30
2020,08,17,03,38,23.20
2020,08,17,03,39,23.20
2020,08,17,03,40,23.20
2020,08,17,03,41,23.10
2020,08,17,03,42,23.10
2020,08,17,03,43,23.10
2020,08,17,03,44,23.00
2020,08,17,03,45,23.00
2020,08,17,03,46,22.90
2020,08,17,03,47,22.90
2020,08,17,03,48,22.90
2020,08,17,03,49,22.90
2020,08,17,03,50,22.80
2020,08,17,03,51,22.80
2020,08,17,03,52,22.80
2020,08,17,03,53,22.70
2020,08,17,03,54,22.70
2020,08,17,03,55,22.70
2020,08,17,03,56,22.70
2020,08,17,03,57,22.60
2020,08,17,03,58,22.60
2020,08,17,03,59,22.60
2020,08,17,04,00,22.60
2020,08,17,04,01,22.50
2020,08,17,04,02,22.50
2020,08,17,04,03,22.50
2020,08,17,04,04,22.50
2020,08,17,04,05,22.40
2020,08,17,04,06,22.40
2020,08,17,04,07,22.40
2020,08,17,04,08,22.40
2020,08,17,04,09,22.30
2020,08,17,04,10,22.30
2020,08,17,04,11,22.30
2020,08,17,04,12,22.30
2020,08,17,04,13,22.20
2020,08,17,04,14,22.20
2020,08,17,04,15,22.10
2020,08,17,04,16,22.10
2020,08,17,04,17,22.10
2020,08,17,04,18,22.00
2020,08,17,04,19,22.00
2020,08,17,04,20,22.00
2020,08,17,04,21,21.90
2020,08,17,04,22,21.90
2020,08,17,04,23,21.90
2020,08,17,04,24,21.90
2020,08,17,04,25,21.90
2020,08,17,04,26,21.90
2020,08,17,04,27,21.80
2020,08,17,04,28,21.80
2020,08,17,04,29,21.80
2020,08,17,04,30,21.70
2020,08,17,04,31,21.70
2020,08,17,04,32,21.70
2020,08,17,04,33,21.70
2020,08,17,04,34,21.60
2020,08,17,04,35,21.60
2020,08,17,04,36,21.60
2020,08,17,04,37,21.60
2020,08,17,04,38,21.60
2020,08,17,04,39,21.60
2020,08,17,04,40,21.50
2020,08,17,04,41,21.50
2020,08,17,04,42,21.50
2020,08,17,04,43,21.40
2020,08,17,04,44,21.40
2020,08,17,04,45,21.40
2020,08,17,04,46,21.40
2020,08,17,04,47,21.40
2020,08,17,04,48,21.40
2020,08,17,04,49,21.30
2020,08,17,04,50,21.30
2020,08,17,04,51,21.30
2020,08,17,04,52,21.30
2020,08,17,04,53,21.30
2020,08,17,04,54,21.30
2020,08,17,04,55,21.30
2020,08,17,04,56,21.20
2020,08,17,04,57,21.20
2020,08,17,04,58,21.20
2020,08,17,04,59,21.20
2020,08,17,05,00,21.20
2020,08,17,05,01,21.10
2020,08,17,05,02,21.10
2020,08,17,05,03,21.10
2020,08,17,05,04,21.10
2020,08,17,05,05,21.10
2020,08,17,05,06,21.10
2020,08,17,05,07,21.00
2020,08,17,05,08,21.10
2020,08,17,05,09,21.10
2020,08,17,05,10,21.00
2020,08,17,05,11,21.00
2020,08,17,05,12,21.00
2020,08,17,05,13,21.00
2020,08,17,05,14,21.00
2020,08,17,05,15,21.00
2020,08,17,05,16,21.00
2020,08,17,05,17,21.00
2020,08,17,05,18,21.00
2020,08,17,05,19,21.00
2020,08,17,05,20,21.00
2020,08,17,05,21,21.00
2020,08,17,05,22,21.00
2020,08,17,05,23,20.90
2020,08,17,05,24,20.90
2020,08,17,05,25,20.90
2020,08,17,05,26,20.90
2020,08,17,05,27,20.90
2020,08,17,05,28,20.90
2020,08,17,05,29,20.90
2020,08,17,05,30,20.90
2020,08,17,05,31,20.90
2020,08,17,05,32,20.90
2020,08,17,05,33,20.90
2020,08,17,05,34,20.90
2020,08,17,05,35,20.90
2020,08,17,05,36,20.90
2020,08,17,05,37,20.90
2020,08,17,05,38,20.90
2020,08,17,05,39,20.90
2020,08,17,05,40,20.90
2020,08,17,05,41,20.90
2020,08,17,05,42,20.90
2020,08,17,05,43,20.90
2020,08,17,05,44,20.80
2020,08,17,05,45,20.80
2020,08,17,05,46,20.80
2020,08,17,05,47,20.80
2020,08,17,05,48,20.80
2020,08,17,05,49,20.80
2020,08,17,05,50,20.80
2020,08,17,05,51,20.80
2020,08,17,05,52,20.70
2020,08,17,05,53,20.70
2020,08,17,05,54,20.70
2020,08,17,05,55,20.70
2020,08,17,05,56,20.70
2020,08,17,05,57,20.70
2020,08,17,05,58,20.70
2020,08,17,05,59,20.70
2020,08,17,06,00,20.70
2020,08,17,06,01,20.70
2020,08,17,06,02,20.70
2020,08,17,06,03,20.60
2020,08,17,06,04,20.60
2020,08,17,06,05,20.60
2020,08,17,06,06,20.60
2020,08,17,06,07,20.60
2020,08,17,06,08,20.60
2020,08,17,06,09,20.60
2020,08,17,06,10,20.60
2020,08,17,06,11,20.50
2020,08,17,06,12,20.50
2020,08,17,06,13,20.50
2020,08,17,06,14,20.50
2020,08,17,06,15,20.40
2020,08,17,06,16,20.40
2020,08,17,06,17,20.40
2020,08,17,06,18,20.40
2020,08,17,06,19,20.40
2020,08,17,06,20,20.30
2020,08,17,06,21,20.30
2020,08,17,06,22,20.30
2020,08,17,06,23,20.30
2020,08,17,06,24,20.30
2020,08,17,06,25,20.30
2020,08,17,06,26,20.30
2020,08,17,06,27,20.20
2020,08,17,06,28,20.20
2020,08,17,06,29,20.20
2020,08,17,06,30,20.20
2020,08,17,06,31,20.20
2020,08,17,06,32,20.10
2020,08,17,06,33,20.10
2020,08,17,06,34,20.10
2020,08,17,06,35,20.10
2020,08,17,06,36,20.10
2020,08,17,06,37,20.10
2020,08,17,06,38,20.10
2020,08,17,06,39,20.10
2020,08,17,06,40,20.00
2020,08,17,06,41,20.00
2020,08,17,06,42,20.00
2020,08,17,06,43,20.00
2020,08,17,06,44,20.00
2020,08,17,06,45,20.00
2020,08,17,06,46,19.90
2020,08,17,06,47,19.90
2020,08,17,06,48,19.90
2020,08,17,06,49,19.90
2020,08,17,06,50,19.90
2020,08,17,06,51,19.90
2020,08,17,06,52,19.90
2020,08,17,06,53,19.90
2020,08,17,06,54,19.90
2020,08,17,06,55,19.90
2020,08,17,06,56,19.90
2020,08,17,06,57,19.90
2020,08,17,06,58,19.90
2020,08,17,06,59,19.90
2020,08,17,07,00,19.90
2020,08,17,07,01,19.90
2020,08,17,07,02,19.90
2020,08,17,07,03,19.90
2020,08,17,07,04,19.90
2020,08,17,07,05,19.90
2020,08,17,07,06,19.90
2020,08,17,07,07,19.90
2020,08,17,07,08,19.90
2020,08,17,07,09,19.90
2020,08,17,07,10,20.00
2020,08,17,07,11,20.00
2020,08,17,07,12,20.00
2020,08,17,07,13,20.00
2020,08,17,07,14,20.10
2020,08,17,07,15,20.10
2020,08,17,07,16,20.10
2020,08,17,07,17,20.10
2020,08,17,07,18,20.10
2020,08,17,07,19,20.20
2020,08,17,07,20,20.20
2020,08,17,07,21,20.30
2020,08,17,07,22,20.30
2020,08,17,07,23,20.30
2020,08,17,07,24,20.40
2020,08,17,07,25,20.40
2020,08,17,07,26,20.40
2020,08,17,07,27,20.50
2020,08,17,07,28,20.50
2020,08,17,07,29,20.60
2020,08,17,07,30,20.60
2020,08,17,07,31,20.60
2020,08,17,07,32,20.70
2020,08,17,07,33,20.70
2020,08,17,07,34,20.70
2020,08,17,07,35,20.70
2020,08,17,07,36,20.80
2020,08,17,07,37,20.80
2020,08,17,07,38,20.80
2020,08,17,07,39,20.90
2020,08,17,07,40,20.90
2020,08,17,07,41,20.90
2020,08,17,07,42,21.00
2020,08,17,07,43,21.00
2020,08,17,07,44,21.10
2020,08,17,07,45,21.10
2020,08,17,07,46,21.20
2020,08,17,07,47,21.30
2020,08,17,07,48,21.40
2020,08,17,07,49,21.50
2020,08,17,07,50,21.60
2020,08,17,07,51,21.60
2020,08,17,07,52,21.70
2020,08,17,07,53,21.70
2020,08,17,07,54,21.80
2020,08,17,07,55,21.80
2020,08,17,07,56,21.80
2020,08,17,07,57,21.90
2020,08,17,07,58,21.90
2020,08,17,07,59,22.00
2020,08,17,08,00,22.00
2020,08,17,08,01,22.10
2020,08,17,08,02,22.10
2020,08,17,08,03,22.20
2020,08,17,08,04,22.20
2020,08,17,08,05,22.20
2020,08,17,08,06,22.20
2020,08,17,08,07,22.30
2020,08,17,08,08,22.30
2020,08,17,08,09,22.30
2020,08,17,08,10,22.40
2020,08,17,08,11,22.40
2020,08,17,08,12,22.40
2020,08,17,08,13,22.40
2020,08,17,08,14,22.40
2020,08,17,08,15,22.50
2020,08,17,08,16,22.50
2020,08,17,08,17,22.60
2020,08,17,08,18,22.60
2020,08,17,08,19,22.60
2020,08,17,08,20,22.60
2020,08,17,08,21,22.60
2020,08,17,08,22,22.60
2020,08,17,08,23,22.60
2020,08,17,08,24,22.70
2020,08,17,08,25,22.70
2020,08,17,08,26,22.70
2020,08,17,08,27,22.70
2020,08,17,08,28,22.70
2020,08,17,08,29,22.80
2020,08,17,08,30,22.80
2020,08,17,08,31,22.80
2020,08,17,08,32,22.90
2020,08,17,08,33,22.90
2020,08,17,08,34,22.90
2020,08,17,08,35,23.00
2020,08,17,08,36,23.00
2020,08,17,08,37,23.10
2020,08,17,08,38,23.10
2020,08,17,08,39,23.20
2020,08,17,08,40,23.20
2020,08,17,08,41,23.20
2020,08,17,08,42,23.30
2020,08,17,08,43,23.30
2020,08,17,08,44,23.30
2020,08,17,08,45,23.30
2020,08,17,08,46,23.30
2020,08,17,08,47,23.30
2020,08,17,08,48,23.30
2020,08,17,08,49,23.30
2020,08,17,08,50,23.30
2020,08,17,08,51,23.40
2020,08,17,08,52,23.40
2020,08,17,08,53,23.40
2020,08,17,08,54,23.50
2020,08,17,08,55,23.50
2020,08,17,08,56,23.50
2020,08,17,08,57,23.60
2020,08,17,08,58,23.60
2020,08,17,08,59,23.60
2020,08,17,09,00,23.60
2020,08,17,09,01,23.60
2020,08,17,09,02,23.60
2020,08,17,09,03,23.60
2020,08,17,09,04,23.70
2020,08,17,09,05,23.70
2020,08,17,09,06,23.80
2020,08,17,09,07,23.80
2020,08,17,09,08,23.80
2020,08,17,09,09,23.90
2020,08,17,09,10,23.90
2020,08,17,09,11,24.00
2020,08,17,09,12,24.00
2020,08,17,09,13,23.90
2020,08,17,09,14,23.90
2020,08,17,09,15,23.90
2020,08,17,09,16,23.90
2020,08,17,09,17,23.90
2020,08,17,09,18,23.90
2020,08,17,09,19,23.90
2020,08,17,09,20,24.00
2020,08,17,09,21,24.00
2020,08,17,09,22,24.00
2020,08,17,09,23,24.10
2020,08,17,09,24,24.20
2020,08,17,09,25,24.20
2020,08,17,09,26,24.30
2020,08,17,09,27,24.30
2020,08,17,09,28,24.30
2020,08,17,09,29,24.40
2020,08,17,09,30,24.40
2020,08,17,09,31,24.40
2020,08,17,09,32,24.50
2020,08,17,09,33,24.60
2020,08,17,09,34,24.60
2020,08,17,09,35,24.60
2020,08,17,09,36,24.60
2020,08,17,09,37,24.70
2020,08,17,09,38,24.70
2020,08,17,09,39,24.80
2020,08,17,09,40,24.80
2020,08,17,09,41,24.90
2020,08,17,09,42,24.90
2020,08,17,09,43,24.90
2020,08,17,09,44,24.90
2020,08,17,09,45,24.90
2020,08,17,09,46,24.90
2020,08,17,09,47,25.00
2020,08,17,09,48,25.00
2020,08,17,09,49,25.00
2020,08,17,09,50,25.00
2020,08,17,09,51,25.10
2020,08,17,09,52,25.10
2020,08,17,09,53,25.10
2020,08,17,09,54,25.20
2020,08,17,09,55,25.20
2020,08,17,09,56,25.20
2020,08,17,09,57,25.20
2020,08,17,09,58,25.20
2020,08,17,09,59,25.20
2020,08,17,10,00,25.20
2020,08,17,10,01,25.20
2020,08,17,10,02,25.20
2020,08,17,10,03,25.20
2020,08,17,10,04,25.10
2020,08,17,10,05,25.10
2020,08,17,10,06,25.10
2020,08,17,10,07,25.10
2020,08,17,10,08,25.10
2020,08,17,10,09,25.10
2020,08,17,10,10,25.10
2020,08,17,10,11,25.20
2020,08,17,10,12,25.20
2020,08,17,10,13,25.20
2020,08,17,10,14,25.20
2020,08,17,10,15,25.20
2020,08,17,10,16,25.30
2020,08,17,10,17,25.30
2020,08,17,10,18,25.30
2020,08,17,10,19,25.30
2020,08,17,10,20,25.30
2020,08,17,10,21,25.30
2020,08,17,10,22,25.40
2020,08,17,10,23,25.40
2020,08,17,10,24,25.40
2020,08,17,10,25,25.40
2020,08,17,10,26,25.40
2020,08,17,10,27,25.50
2020,08,17,10,28,25.50
2020,08,17,10,29,25.60
2020,08,17,10,30,25.60
2020,08,17,10,31,25.60
2020,08,17,10,32,25.70
2020,08,17,10,33,25.70
2020,08,17,10,34,25.80
2020,08,17,10,35,25.80
2020,08,17,10,36,25.90
2020,08,17,10,37,26.00
2020,08,17,10,38,26.00
2020,08,17,10,39,26.10
2020,08,17,10,40,26.20
2020,08,17,10,41,26.20
2020,08,17,10,42,26.20
2020,08,17,10,43,26.20
2020,08,17,10,44,26.30
2020,08,17,10,45,26.30
2020,08,17,10,46,26.40
2020,08,17,10,47,26.40
2020,08,17,10,48,26.40
2020,08,17,10,49,26.40
2020,08,17,10,50,26.50
2020,08,17,10,51,26.50
2020,08,17,10,52,26.60
2020,08,17,10,53,26.60
2020,08,17,10,54,26.60
2020,08,17,10,55,26.60
2020,08,17,10,56,26.60
2020,08,17,10,57,26.70
2020,08,17,10,58,26.80
2020,08,17,10,59,26.80
2020,08,17,11,00,26.90
2020,08,17,11,01,26.90
2020,08,17,11,02,26.90
2020,08,17,11,03,27.00
2020,08,17,11,04,27.10
2020,08,17,11,05,27.20
2020,08,17,11,06,27.30
2020,08,17,11,07,27.30
2020,08,17,11,08,27.40
2020,08,17,11,09,27.40
2020,08,17,11,10,27.40
2020,08,17,11,11,27.50
2020,08,17,11,12,27.50
2020,08,17,11,13,27.50
2020,08,17,11,14,27.40
2020,08,17,11,15,27.40
2020,08,17,11,16,27.40
2020,08,17,11,17,27.40
2020,08,17,11,18,27.50
2020,08,17,11,19,27.50
2020,08,17,11,20,27.60
2020,08,17,11,21,27.60
2020,08,17,11,22,27.60
2020,08,17,11,23,27.70
2020,08,17,11,24,27.70
2020,08,17,11,25,27.80
2020,08,17,11,26,27.80
2020,08,17,11,27,27.80
2020,08,17,11,28,27.80
2020,08,17,11,29,27.80
2020,08,17,11,30,27.70
2020,08,17,11,31,27.70
2020,08,17,11,32,27.70
2020,08,17,11,33,27.70
2020,08,17,11,34,27.80
2020,08,17,11,35,27.80
2020,08,17,11,36,27.90
2020,08,17,11,37,27.90
2020,08,17,11,38,27.90
2020,08,17,11,39,27.90
2020,08,17,11,40,27.90
2020,08,17,11,41,28.00
2020,08,17,11,42,28.00
2020,08,17,11,43,28.10
2020,08,17,11,44,28.10
2020,08,17,11,45,28.00
2020,08,17,11,46,28.00
2020,08,17,11,47,28.10
2020,08,17,11,48,28.10
2020,08,17,11,49,28.10
2020,08,17,11,50,28.10
2020,08,17,11,51,28.10
2020,08,17,11,52,28.20
2020,08,17,11,53,28.30
2020,08,17,11,54,28.30
2020,08,17,11,55,28.40
2020,08,17,11,56,28.40
2020,08,17,11,57,28.40
2020,08,17,11,58,28.40
2020,08,17,11,59,28.30
2020,08,17,12,00,28.20
2020,08,17,12,01,28.20
2020,08,17,12,02,28.20
2020,08,17,12,03,28.30
2020,08,17,12,04,28.30
2020,08,17,12,05,28.30
2020,08,17,12,06,28.30
2020,08,17,12,07,28.30
2020,08,17,12,08,28.30
2020,08,17,12,09,28.30
2020,08,17,12,10,28.50
2020,08,17,12,11,28.50
2020,08,17,12,12,28.60
2020,08,17,12,13,28.60
2020,08,17,12,14,28.60
2020,08,17,12,15,28.60
2020,08,17,12,16,28.60
2020,08,17,12,17,28.60
2020,08,17,12,18,28.70
2020,08,17,12,19,28.70
2020,08,17,12,20,28.80
2020,08,17,12,21,28.80
2020,08,17,12,22,28.90
2020,08,17,12,23,28.90
2020,08,17,12,24,28.90
2020,08,17,12,25,29.00
2020,08,17,12,26,29.00
2020,08,17,12,27,29.10
2020,08,17,12,28,29.10
2020,08,17,12,29,29.20
2020,08,17,12,30,29.20
2020,08,17,12,31,29.20
2020,08,17,12,32,29.20
2020,08,17,12,33,29.20
2020,08,17,12,34,29.20
2020,08,17,12,35,29.20
2020,08,17,12,36,29.20
2020,08,17,12,37,29.20
2020,08,17,12,38,29.30
2020,08,17,12,39,29.30
2020,08,17,12,40,29.40
2020,08,17,12,41,29.40
2020,08,17,12,42,29.40
2020,08,17,12,43,29.40
2020,08,17,12,44,29.40
2020,08,17,12,45,29.40
2020,08,17,12,46,29.40
2020,08,17,12,47,29.40
2020,08,17,12,48,29.30
2020,08,17,12,49,29.20
2020,08,17,12,50,29.20
2020,08,17,12,51,29.20
2020,08,17,12,52,29.20
2020,08,17,12,53,29.20
2020,08,17,12,54,29.20
2020,08,17,12,55,29.10
2020,08,17,12,56,29.10
2020,08,17,12,57,29.00
2020,08,17,12,58,28.90
2020,08,17,12,59,28.90
2020,08,17,13,00,28.90
2020,08,17,13,01,28.90
2020,08,17,13,02,29.00
2020,08,17,13,03,29.10
2020,08,17,13,04,29.10
2020,08,17,13,05,29.20
2020,08,17,13,06,29.20
2020,08,17,13,07,29.20
2020,08,17,13,08,29.30
2020,08,17,13,09,29.30
2020,08,17,13,10,29.40
2020,08,17,13,11,29.40
2020,08,17,13,12,29.30
2020,08,17,13,13,29.30
2020,08,17,13,14,29.30
2020,08,17,13,15,29.30
2020,08,17,13,16,29.30
2020,08,17,13,17,29.30
2020,08,17,13,18,29.30
2020,08,17,13,19,29.30
2020,08,17,13,20,29.30
2020,08,17,13,21,29.20
2020,08,17,13,22,29.10
2020,08,17,13,23,29.10
2020,08,17,13,24,29.10
2020,08,17,13,25,29.10
2020,08,17,13,26,29.10
2020,08,17,13,27,29.10
2020,08,17,13,28,29.10
2020,08,17,13,29,29.20
2020,08,17,13,30,29.30
2020,08,17,13,31,29.30
2020,08,17,13,32,29.30
2020,08,17,13,33,29.40
2020,08,17,13,34,29.50
2020,08,17,13,35,29.60
2020,08,17,13,36,29.60
2020,08,17,13,37,29.70
2020,08,17,13,38,29.70
2020,08,17,13,39,29.70
2020,08,17,13,40,29.70
2020,08,17,13,41,29.80
2020,08,17,13,42,29.80
2020,08,17,13,43,29.80
2020,08,17,13,44,29.80
2020,08,17,13,45,29.80
2020,08,17,13,46,29.80
2020,08,17,13,47,29.80
2020,08,17,13,48,29.80
2020,08,17,13,49,29.80
2020,08,17,13,50,29.70
2020,08,17,13,51,29.80
2020,08,17,13,52,29.80
2020,08,17,13,53,29.80
2020,08,17,13,54,29.80
2020,08,17,13,55,29.80
2020,08,17,13,56,29.80
2020,08,17,13,57,29.80
2020,08,17,13,58,29.80
2020,08,17,13,59,29.90
2020,08,17,14,00,29.90
2020,08,17,14,01,29.90
2020,08,17,14,02,29.90
2020,08,17,14,03,29.90
2020,08,17,14,04,29.90
2020,08,17,14,05,29.90
2020,08,17,14,06,29.90
2020,08,17,14,07,29.80
2020,08,17,14,08,29.80
2020,08,17,14,09,29.80
2020,08,17,14,10,29.80
2020,08,17,14,11,29.80
2020,08,17,14,12,29.80
2020,08,17,14,13,29.80
2020,08,17,14,14,29.80
2020,08,17,14,15,29.80
2020,08,17,14,16,29.80
2020,08,17,14,17,29.70
2020,08,17,14,18,29.70
2020,08,17,14,19,29.70
2020,08,17,14,20,29.70
2020,08,17,14,21,29.70
2020,08,17,14,22,29.80
2020,08,17,14,23,29.90
2020,08,17,14,24,29.90
2020,08,17,14,25,29.90
2020,08,17,14,26,29.90
2020,08,17,14,27,29.90
2020,08,17,14,28,29.90
2020,08,17,14,29,29.90
2020,08,17,14,30,29.90
2020,08,17,14,31,29.90
2020,08,17,14,32,29.80
2020,08,17,14,33,29.80
2020,08,17,14,34,29.80
2020,08,17,14,35,29.80
2020,08,17,14,36,29.80
2020,08,17,14,37,29.80
2020,08,17,14,38,29.70
2020,08,17,14,39,29.70
2020,08,17,14,40,29.80
2020,08,17,14,41,29.80
2020,08,17,14,42,29.80
2020,08,17,14,43,29.80
2020,08,17,14,44,29.80
2020,08,17,14,45,29.80
2020,08,17,14,46,29.80
2020,08,17,14,47,29.80
2020,08,17,14,48,29.80
2020,08,17,14,49,29.80
2020,08,17,14,50,29.80
2020,08,17,14,51,29.80
2020,08,17,14,52,29.90
2020,08,17,14,53,29.90
2020,08,17,14,54,30.00
2020,08,17,14,55,30.10
2020,08,17,14,56,30.10
2020,08,17,14,57,30.10
2020,08,17,14,58,30.10
2020,08,17,14,59,30.10
2020,08,17,15,00,30.10
2020,08,17,15,01,30.10
2020,08,17,15,02,30.10
2020,08,17,15,03,30.10
2020,08,17,15,04,30.10
2020,08,17,15,05,30.10
2020,08,17,15,06,30.10
2020,08,17,15,07,30.20
2020,08,17,15,08,30.20
2020,08,17,15,09,30.30
2020,08,17,15,10,30.30
2020,08,17,15,11,30.30
2020,08,17,15,12,30.30
2020,08,17,15,13,30.40
2020,08,17,15,14,30.40
2020,08,17,15,15,30.40
2020,08,17,15,16,30.40
2020,08,17,15,17,30.40
2020,08,17,15,18,30.40
2020,08,17,15,19,30.50
2020,08,17,15,20,30.50
2020,08,17,15,21,30.60
2020,08,17,15,22,30.60
2020,08,17,15,23,30.60
2020,08,17,15,24,30.60
2020,08,17,15,25,30.60
2020,08,17,15,26,30.60
2020,08,17,15,27,30.60
2020,08,17,15,28,30.60
2020,08,17,15,29,30.60
2020,08,17,15,30,30.60
2020,08,17,15,31,30.60
2020,08,17,15,32,30.60
2020,08,17,15,33,30.60
2020,08,17,15,34,30.60
2020,08,17,15,35,30.50
2020,08,17,15,36,30.60
2020,08,17,15,37,30.60
2020,08,17,15,38,30.60
2020,08,17,15,39,30.70
2020,08,17,15,40,30.70
2020,08,17,15,41,30.70
2020,08,17,15,42,30.80
2020,08,17,15,43,30.80
2020,08,17,15,44,30.80
2020,08,17,15,45,30.80
2020,08,17,15,46,30.90
2020,08,17,15,47,30.90
2020,08,17,15,48,30.90
2020,08,17,15,49,30.90
2020,08,17,15,50,30.90
2020,08,17,15,51,30.90
2020,08,17,15,52,30.90
2020,08,17,15,53,30.90
2020,08,17,15,54,30.90
2020,08,17,15,55,30.90
2020,08,17,15,56,30.90
2020,08,17,15,57,30.90
2020,08,17,15,58,30.90
2020,08,17,15,59,30.80
2020,08,17,16,00,30.80
2020,08,17,16,01,30.70
2020,08,17,16,02,30.70
2020,08,17,16,03,30.70
2020,08,17,16,04,30.70
2020,08,17,16,05,30.70
2020,08,17,16,06,30.70
2020,08,17,16,07,30.70
2020,08,17,16,08,30.70
2020,08,17,16,09,30.70
2020,08,17,16,10,30.70
2020,08,17,16,11,30.70
2020,08,17,16,12,30.70
2020,08,17,16,13,30.70
2020,08,17,16,14,30.60
2020,08,17,16,15,30.60
2020,08,17,16,16,30.60
2020,08,17,16,17,30.50
2020,08,17,16,18,30.50
2020,08,17,16,19,30.50
2020,08,17,16,20,30.40
2020,08,17,16,21,30.40
2020,08,17,16,22,30.40
2020,08,17,16,23,30.40
2020,08,17,16,24,30.40
2020,08,17,16,25,30.40
2020,08,17,16,26,30.40
2020,08,17,16,27,30.40
2020,08,17,16,28,30.40
2020,08,17,16,29,30.50
2020,08,17,16,30,30.60
2020,08,17,16,31,30.60
2020,08,17,16,32,30.60
2020,08,17,16,33,30.60
2020,08,17,16,34,30.60
2020,08,17,16,35,30.60
2020,08,17,16,36,30.60
2020,08,17,16,37,30.60
2020,08,17,16,38,30.60
2020,08,17,16,39,30.60
2020,08,17,16,40,30.60
2020,08,17,16,41,30.60
2020,08,17,16,42,30.60
2020,08,17,16,43,30.60
2020,08,17,16,44,30.50
2020,08,17,16,45,30.50
2020,08,17,16,46,30.50
2020,08,17,16,47,30.50
2020,08,17,16,48,30.50
2020,08,17,16,49,30.50
2020,08,17,16,50,30.50
2020,08,17,16,51,30.50
2020,08,17,16,52,30.50
2020,08,17,16,53,30.50
2020,08,17,16,54,30.50
2020,08,17,16,55,30.50
2020,08,17,16,56,30.50
2020,08,17,16,57,30.50
2020,08,17,16,58,30.50
2020,08,17,16,59,30.40
2020,08,17,17,00,30.40
2020,08,17,17,01,30.20
2020,08,17,17,02,30.10
2020,08,17,17,03,30.00
2020,08,17,17,04,30.00
2020,08,17,17,05,30.00
2020,08,17,17,06,30.00
2020,08,17,17,07,30.00
2020,08,17,17,08,30.10
2020,08,17,17,09,30.10
2020,08,17,17,10,30.10
2020,08,17,17,11,30.10
2020,08,17,17,12,30.10
2020,08,17,17,13,30.10
2020,08,17,17,14,30.10
2020,08,17,17,15,30.10
2020,08,17,17,16,30.10
2020,08,17,17,17,30.10
2020,08,17,17,18,30.10
2020,08,17,17,19,30.00